Location: Absher
(46.5583°N, 107.9840°W)
Time: 00:29:07
(UTC+00:00)

Oscar 11 - Visible Passes

Search period start: 31 March 2023 00:00
Search period end: 10 April 2023 00:00
Orbit: 608 x 622 km, 97.7° (Epoch: 29 March)

Date Brightness Start Highest point End Pass type
(mag) Time Alt. Az. Time Alt. Az. Time Alt. Az.
31 Mar 9.7 10:40:43 10° NE 10:43:45 18° E 10:46:44 10° SE visible
31 Mar 7.4 12:15:54 10° N 12:20:00 46° WNW 12:24:06 10° SW visible
01 Apr 9.1 10:55:55 10° NE 10:59:33 26° E 11:03:09 10° SSE visible
02 Apr 8.5 11:11:18 10° NNE 11:15:18 37° E 11:19:17 10° SSE visible
03 Apr 7.8 11:26:48 10° NNE 11:31:02 55° E 11:35:13 10° S visible
04 Apr 7.1 11:42:24 10° NNE 11:46:43 81° ESE 11:51:00 10° S visible
05 Apr 10.0 10:24:00 10° ENE 10:25:50 12° E 10:27:39 10° ESE visible
05 Apr 7.0 11:58:04 10° N 12:02:20 70° WNW 12:06:36 10° SSW visible
06 Apr 9.7 10:38:42 10° NE 10:41:38 18° E 10:44:35 10° SE visible
07 Apr 9.2 10:53:50 10° NE 10:57:25 25° E 11:00:59 10° SSE visible
08 Apr 8.6 11:09:10 10° NNE 11:13:08 36° E 11:17:06 10° SSE visible
09 Apr 7.9 11:24:37 10° NNE 11:28:50 53° E 11:33:02 10° S visible
